Flag for Japan Weather past 2 weeks in Hamamatsu, Japan

Now
68 °F

Fog.


Feels Like: 68 °F
Forecast: 56 / 76 °F
Wind: 9 mph from Southwest

Location: Omaezaki

Current Time: Apr 27, 2015 at 5:05:03 PM

Latest Report: Apr 27, 2015 at 4:00 PM


Visibility: 6 mi

Pressure: 30.04 "Hg

Humidity: 82%

Dew point: 62 °F

Location of HamamatsuLocation

Historic Weather in Hamamatsu — Graph

°F

Hamamatsu temperature yesterday

Maximum temperature yesterday: 67 °F (at 1:00 PM)
Minimum temperature yesterday: 56 °F (at 5:00 AM)
Average temperature yesterday: 61 °F

Past Weeks' High & Low Weather Summary

 TemperatureHumidityPressure
High69 °F (Apr 27, 3:00 PM)100% (Apr 14, 7:00 PM)30.37 "Hg (Apr 14, 7:00 PM)
Low49 °F (Apr 18, 2:00 AM)34% (Apr 17, 6:00 PM)29.57 "Hg (Apr 21, 2:00 AM)
Average60 °F79%29.98 "Hg
* Reported Apr 12 3:00 PM — Apr 27 3:00 PM, Hamamatsu, Weather by CustomWeather, © 2015

Note: Actual official high and low records may vary slightly from our data, if they occured in-between our weather recording intervals... More about our weather records

Advertising

Hamamatsu weather history for previous 24 hours

 ConditionsComfort  
Time TempWeatherWind HumidityBarometerVisibility
3:00 PM
Mon, Apr 27
69 °FMild.9 mph80%30.04 "Hg6 mi
2:00 PM69 °FMild.9 mph80%30.06 "Hg6 mi
1:00 PM68 °FMild.10 mph78%30.07 "Hg6 mi
12:00 PM68 °FMild.10 mph80%30.09 "Hg7 mi
11:00 AM67 °FFog.10 mph83%30.11 "Hg6 mi
10:00 AM65 °FFog.8 mph85%30.12 "Hg5 mi
9:00 AM63 °FFog.8 mph89%30.13 "Hg3 mi
8:00 AM63 °FFog.2 mph82%30.14 "Hg5 mi
7:00 AM61 °FFog.5 mph86%30.13 "Hg4 mi
6:00 AM58 °FFog.5 mph94%30.12 "Hg2 mi
5:00 AM58 °FFog.5 mph95%30.11 "Hg2 mi
4:00 AM59 °FFog.3 mph95%30.11 "Hg2 mi
3:00 AM61 °FFog.2 mph94%30.12 "Hg3 mi
2:00 AM61 °FFog.2 mph91%30.12 "Hg4 mi
1:00 AM61 °FFog.1 mph92%30.12 "Hg4 mi
12:00 AM60 °FFog.3 mph95%30.14 "Hg2 mi
11:00 PM
Sun, Apr 26
61 °FFog.5 mph94%30.14 "Hg4 mi
10:00 PM62 °FFog.6 mph93%30.14 "Hg4 mi
9:00 PM61 °FFog.7 mph92%30.14 "Hg4 mi
8:00 PM62 °FFog.9 mph91%30.13 "Hg5 mi
7:00 PM62 °FFog.6 mph89%30.11 "Hg5 mi
6:00 PM63 °FMild.7 mph83%30.10 "Hg7 mi
5:00 PM65 °FMild.7 mph77%30.09 "Hg8 mi
Weather by CustomWeather, © 2015

See weather overviewHow to use our weather pages